Regional Weather Roundup
Issued by NWS

Home | Current Version | Previous Version | Graphics & Text | Print | Product List | Glossary On
Versions: 1 2 3 4 5 6 7 8 9 10 11 12 13 14 15 16 17 18 19 20 21 22 23 24 25 26 27 28 29 30 31 32 33 34 35 36 37 38 39 40 41 42 43 44 45 46 47 48 49 50
000
ASUS43 KIND 241700
RWRIN

WEATHER ROUNDUP FOR INDIANA
NATIONAL WEATHER SERVICE INDIANAPOLIS IN
100 PM EDT SAT JUN 24 2017

NOTE: "FAIR" INDICATES FEW OR NO CLOUDS BELOW 12,000 FEET WITH NO
SIGNIFICANT WEATHER AND/OR OBSTRUCTIONS TO VISIBILITY.

* - STATION DOES NOT REPORT WEATHER SUCH AS PRECIPITATION OR FOG.

+ - STATION NOT QUALITY CONTROLLED BY THE NATIONAL WEATHER SERVICE.
    USE DATA WITH CAUTION...ESPECIALLY DEWPOINT AND RELATIVE
    HUMIDITY OBSERVATIONS.

INZ001>003-010>013-019-020-241800-
NORTHWEST INDIANA

CITY           SKY/WX    TMP DP  RH WIND       PRES   REMARKS
GARY /AIRPORT/ MOSUNNY   73  46  38 W14G26    29.99R
KNOX *+        MOSUNNY   72  45  37 W17G24    29.98R
MICHIGAN CITY+ MOSUNNY   70  54  56 NW10G20   29.99R
MONTICELLO +   PTSUNNY   72  58  61 W15       30.00R

$$

LMZ046-743>745-241800-
SOUTHERN LAKE MICHIGAN

STATION/POSITION TIME  TEMP    WIND        PRES    WAVE
                       AIR SEA DIR/SP/G            HT
                 (UTC) (F)     (DEG/KT/KT) (MB)    (FT)
BURNS HARBOR     1640   68     300/  8/ 11 1015.6R
MICHIGAN CITY    1630   65     250/  7/  8   N/A
5NW MICH CITY    1650   66 68  280/  6/  8   N/A     2

$$

INZ004-005-014>016-021>024-241800-
NORTH CENTRAL INDIANA

CITY           SKY/WX    TMP DP  RH WIND       PRES   REMARKS
ELKHART        MOSUNNY   72  54  53 W16       29.97R
GOSHEN         MOSUNNY   72  55  55 W16G25    29.96R
PERU/GRISSOM   MOSUNNY   72  59  63 W17       29.98R
SOUTH BEND     MOSUNNY   70  56  61 NW15      29.98R

$$

INZ006>009-017-018-025>027-241800-
NORTHEAST INDIANA

CITY           SKY/WX    TMP DP  RH WIND       PRES   REMARKS
FORT WAYNE     PTSUNNY   73  57  57 W14G22    29.96R
KENDALLVILLE + PTSUNNY   73  56  53 W14G21    29.96R

$$

INZ028-029-035-036-043>045-051>053-241800-
WEST CENTRAL INDIANA

CITY           SKY/WX    TMP DP  RH WIND       PRES   REMARKS
CRAWFORDSVL +  PTSUNNY   70  58  66 W13       30.03R
LAFAYETTE      PTSUNNY   72  59  63 W13G22    30.01R
TERRE HAUTE    MOSUNNY   74  56  53 W14G21    30.04R

$$

INZ030>032-037>040-046>048-054>057-064-065-241800-
CENTRAL INDIANA

CITY           SKY/WX    TMP DP  RH WIND       PRES   REMARKS
GREENWOOD *+   PTSUNNY   73  56  55 W12G21    30.03R
INDIANAPOLIS   PTSUNNY   75  58  55 W15G24    30.01R
-EAGLE CREEK   MOSUNNY   74  55  51 W10G18    30.01R
KOKOMO +       PTSUNNY   73  60  63 W16       30.01R
MT COMFORT *+  MOSUNNY   75  57  53 W13G20    30.01R
SHELBYVILLE    MOSUNNY   76  56  49 W15G21    30.01R

$$

INZ033-034-041-042-049-050-058-059-241800-
EAST CENTRAL INDIANA

CITY           SKY/WX    TMP DP  RH WIND       PRES   REMARKS
MUNCIE         MOSUNNY   75  58  55 W10G20    30.00R
RICHMOND +     MOSUNNY   72  57  60 W13       30.01R

$$

INZ060-061-067>069-081>083-085>088-241800-
SOUTHWEST INDIANA

CITY           SKY/WX    TMP DP  RH WIND       PRES   REMARKS
EVANSVILLE     MOSUNNY   76  57  51 W7G20     30.08R
HUNTINGBURG *+ MOSUNNY   75  58  55 W10       30.06

$$

INZ062-063-066-070>080-084-089>092-241800-
SOUTH CENTRAL AND SOUTHEAST INDIANA

CITY           SKY/WX    TMP DP  RH WIND       PRES   REMARKS
BLOOMINGTON    PTSUNNY   74  56  53 NW10G18   30.04R
MADISON *+     MOSUNNY   75  55  50 W8        30.05S
SEYMOUR +      SUNNY     77  59  53 W10G17    30.02S

$$





USA.gov is the U.S. government's official web portal to all federal, state and local government web resources and services.